This is the latest recevied weather packets stored in our database for station/object KD0ISH. If no packets are shown the sender has not sent any weather packets the latest 10 day(s).
| Time | Temp. | Humidity | Pressure | Rain* | Wind** | Luminosity | Snow |
|---|---|---|---|---|---|---|---|
| 1777598834 | 15° C | 73% | 1017.4 hPa | 0 mm | - | 0 W/m² | - |
| 1777598528 | 15° C | 74% | 1017.2 hPa | 0 mm | - | 0 W/m² | - |
| 1777598223 | 15.56° C | 74% | 1017.2 hPa | 0 mm | - | 0 W/m² | - |
| 1777597921 | 15.56° C | 71% | 1017 hPa | 0 mm | - | 0 W/m² | - |
| 1777597621 | 15.56° C | 69% | 1017.1 hPa | 0 mm | - | 0 W/m² | - |
| 1777597316 | 15.56° C | 68% | 1017 hPa | 0 mm | - | 0 W/m² | - |
| 1777597012 | 15.56° C | 68% | 1017.3 hPa | 0 mm | - | 1 W/m² | - |
| 1777596709 | 16.11° C | 67% | 1017.1 hPa | 0 mm | - | 3 W/m² | - |
| 1777596406 | 16.11° C | 67% | 1016.9 hPa | 0 mm | - | 5 W/m² | - |
| 1777596103 | 16.11° C | 65% | 1017.1 hPa | 0 mm | - | 8 W/m² | - |
| 1777595798 | 16.11° C | 66% | 1016.8 hPa | 0 mm | - | 9 W/m² | - |
| 1777595494 | 16.67° C | 65% | 1016.9 hPa | 0 mm | - | 10 W/m² | - |
| 1777595191 | 16.67° C | 64% | 1017 hPa | 0 mm | - | 16 W/m² | - |
| 1777594887 | 16.67° C | 64% | 1016.9 hPa | 0 mm | - | 18 W/m² | - |
| 1777594583 | 16.67° C | 63% | 1017.1 hPa | 0 mm | - | 18 W/m² | - |
| 1777594280 | 16.67° C | 61% | 1016.9 hPa | 0 mm | - | 16 W/m² | - |
| 1777593976 | 16.67° C | 61% | 1017 hPa | 0 mm | - | 19 W/m² | - |
| 1777593672 | 16.67° C | 61% | 1017.2 hPa | 0 mm | - | 19 W/m² | - |
| 1777593368 | 17.22° C | 60% | 1017 hPa | 0 mm | - | 21 W/m² | - |
| 1777593067 | 17.22° C | 60% | 1016.9 hPa | 0 mm | - | 20 W/m² | - |
| 1777592766 | 17.22° C | 59% | 1016.9 hPa | 0 mm | - | 28 W/m² | - |
| 1777592463 | 17.22° C | 60% | 1016.8 hPa | 0 mm | - | 31 W/m² | - |
| 1777592157 | 17.22° C | 60% | 1017.1 hPa | 0 mm | - | 35 W/m² | - |
| 1777591855 | 17.22° C | 60% | 1017.1 hPa | 0 mm | - | 43 W/m² | - |
| 1777591551 | 17.78° C | 58% | 1017.1 hPa | 0 mm | - | 48 W/m² | - |
* Rain latest hour (hover to see other rain measurements)
** Current wind speed in m/s (hover to see current wind gust speed)